Weather History for KBLI - January, 2013

Change the Weather History Date:

Tuesday, January 1, 2013

  Actual Average Record
Temperature  
Mean Temperature 32 °F 38 °F  
Max Temperature 39 °F 44 °F 54 °F (1992)
Min Temperature 26 °F 32 °F 9 °F (1979)
Degree Days  
Heating Degree Days 32 27  
Month to date heating degree days 27  
Cooling Degree Days 0 0  
Month to date cooling degree days 0  
Year to date cooling degree days 0  
Moisture  
Dew Point 27 °F    
Average Humidity 90    
Maximum Humidity 100    
Minimum Humidity 73    
Precipitation  
Precipitation 0.00 in 0.14 in 0.65 in (1987)
Month to date precipitation 0.14  
Year to date precipitation 0.14  
Sea Level Pressure  
Sea Level Pressure 30.48 in    
Wind  
Wind Speed 1 mph (North)    
Max Wind Speed 8 mph    
Max Gust Speed -    
Visibility 7 miles    
Events Fog    
T = Trace of Precipitation, MM = Missing Value Source: NWS Daily Summary

Daily Weather History Graph

Daily Weather History Graph

Search for Another Location

Airport or City:

Trip Planner

Search our weather history database for the weather conditions in past years. The results will help you decide how hot, cold, wet, or windy it might be!

Date:

Astronomy

Jan. 01, 2013 Rise Set
Actual Time 8:03 AM PST 4:24 PM PST
Civil Twilight 7:26 AM PST 5:01 PM PST
Nautical Twilight 6:46 AM PST 5:41 PM PST
Astronomical Twilight 6:07 AM PST 6:20 PM PST
Moon 9:26 PM PST (1/1) 9:55 AM PST (1/1)
Length of Visible Light 9h 35m
Length of Day
8h 21m
Waning Gibbous, 82% of the Moon is Illuminated
Jan 1
Waning Gibbous
Jan 4
Last Quarter
Jan 11
New
Jan 18
First Quarter
Jan 26
Full

Hourly Weather History & Observations

Time (PST) Temp. Windchill Dew Point Humidity Pressure Visibility Wind Dir Wind Speed Gust Speed Precip Events Conditions
12:53 AM 27.0 °F - 26.1 °F 96% 30.51 in 6.0 mi Calm Calm - N/A   Clear
1:53 AM 28.0 °F - 26.1 °F 92% 30.51 in 5.0 mi Calm Calm - N/A   Mostly Cloudy
2:16 AM 28.4 °F - 26.6 °F 93% 30.49 in 5.0 mi Calm Calm - N/A   Scattered Clouds
2:53 AM 26.1 °F - 24.1 °F 92% 30.53 in 5.0 mi Calm Calm - N/A   Clear
3:53 AM 27.0 °F 23.0 °F 25.0 °F 92% 30.50 in 6.0 mi North 3.5 mph - N/A   Clear
4:38 AM 26.6 °F - 24.8 °F 93% 30.47 in 7.0 mi Calm Calm - N/A   Mostly Cloudy
4:53 AM 27.0 °F - 25.0 °F 92% 30.50 in 7.0 mi Calm Calm - N/A   Overcast
5:38 AM 26.6 °F - 26.6 °F 100% 30.46 in 9.0 mi Calm Calm - N/A   Mostly Cloudy
5:53 AM 26.1 °F - 24.1 °F 92% 30.50 in 8.0 mi Calm Calm - N/A   Mostly Cloudy
6:19 AM 26.6 °F 22.6 °F 24.8 °F 93% 30.47 in 7.0 mi NNW 3.5 mph - N/A   Mostly Cloudy
6:30 AM 26.6 °F 21.2 °F 24.8 °F 93% 30.47 in 8.0 mi North 4.6 mph - N/A   Scattered Clouds
6:40 AM 26.6 °F 22.6 °F 24.8 °F 93% 30.47 in 2.5 mi North 3.5 mph - N/A   Mostly Cloudy
6:45 AM 26.6 °F - 24.8 °F 93% 30.47 in 1.0 mi Calm Calm - N/A   Mist
6:48 AM 26.6 °F - 24.8 °F 93% 30.47 in 0.8 mi Calm Calm - N/A   Mist
6:53 AM 27.0 °F - 26.1 °F 96% 30.51 in 0.5 mi Calm Calm - N/A Fog Light Freezing Fog
7:01 AM 28.4 °F - 26.6 °F 93% 30.47 in 0.2 mi Calm Calm - N/A Fog Light Freezing Fog
7:32 AM 26.6 °F - 24.8 °F 93% 30.48 in 0.5 mi Calm Calm - N/A Fog Light Freezing Fog
7:40 AM 26.6 °F - 24.8 °F 93% 30.48 in 1.0 mi Calm Calm - N/A   Mist
7:45 AM 26.6 °F - 24.8 °F 93% 30.48 in 10.0 mi Calm Calm - N/A   Clear
7:53 AM 27.0 °F - 25.0 °F 92% 30.52 in 10.0 mi Calm Calm - N/A   Clear
8:53 AM 26.1 °F 20.5 °F 25.0 °F 96% 30.52 in 10.0 mi North 4.6 mph - N/A   Clear
9:53 AM 30.0 °F 25.2 °F 28.0 °F 92% 30.55 in 10.0 mi North 4.6 mph - N/A   Clear
10:53 AM 33.1 °F 28.7 °F 30.0 °F 89% 30.54 in 10.0 mi NE 4.6 mph - N/A   Clear
11:53 AM 37.0 °F 32.4 °F 32.0 °F 82% 30.51 in 10.0 mi NNE 5.8 mph - N/A   Clear
12:53 PM 39.0 °F 34.0 °F 30.9 °F 73% 30.50 in 10.0 mi NNE 6.9 mph - N/A   Clear
1:53 PM 37.9 °F 33.5 °F 30.9 °F 76% 30.49 in 10.0 mi North 5.8 mph - N/A   Clear
2:53 PM 37.0 °F 31.0 °F 30.9 °F 79% 30.48 in 10.0 mi North 8.1 mph - N/A   Clear
3:53 PM 36.0 °F - 30.9 °F 82% 30.48 in 10.0 mi Calm Calm - N/A   Clear
4:53 PM 35.1 °F 32.2 °F 30.9 °F 85% 30.47 in 10.0 mi NW 3.5 mph - N/A   Clear
5:53 PM 34.0 °F 31.0 °F 30.0 °F 85% 30.45 in 10.0 mi NNE 3.5 mph - N/A   Clear
6:53 PM 32.0 °F - 30.0 °F 92% 30.43 in 10.0 mi Calm Calm - N/A   Clear
7:53 PM 32.0 °F - 28.0 °F 85% 30.42 in 10.0 mi Calm Calm - N/A   Clear
8:53 PM 28.9 °F - 27.0 °F 92% 30.42 in 10.0 mi Calm Calm - N/A   Clear
9:53 PM 28.9 °F 23.9 °F 27.0 °F 92% 30.41 in 10.0 mi NNW 4.6 mph - N/A   Clear
10:53 PM 30.0 °F - 28.0 °F 92% 30.40 in 10.0 mi Calm Calm - N/A   Clear
11:53 PM 30.0 °F 24.1 °F 28.0 °F 92% 30.40 in 10.0 mi NNW 5.8 mph - N/A   Clear